Content
SEND FEEDBACK

Daily
Averages
Monthly
Summary
United States of America

BEAVER ISLAND, MICHIGAN


Home > North America > United States > Michigan
Elevation: 627 feet     Latitude: 45 43N     Longitude: 085 31W

WEATHER
 
SELECT A DAY
Number of Records: 330,603;   Date Range: 9/12/01 - 11/26/14
 
SHARE

PRINT THIS DATA

[ ← Previous Day ]
WEATHER ALMANAC - JULY 12, 2014
[ Next Day → ]
[ °C ]   °F
Weather ElementAverageHighLow
Temperature66.1 °F70.3 °F (10:36 am)59.4 °F (10:15 pm)
Dewpoint59.4 °F64.4 °F (8:34 am)51.8 °F (1:55 am)
Humidity80.2 %100 % (12:15 am)56 % (4:15 pm)
Barometer29.98 in30.08 in (12:15 am)29.80 in (1:55 am)
Wind Speed10.7 mph15 mph (1:34 pm)
Wind Gust27.6 mph (5:15 pm)
Weather ElementAverage
Visibility8.3 mi
Wind DirectionSSW (218.3 °)

Weather ElementTotal
Precipitation---
Heating Degree Days0.2 (Base 65)
Growing Degree Days14.9 (Base 50)
Averaged from 70 records on July 12, 2014
WEATHER CONDITIONS BREAKOUT
WIND DIRECTION BREAKOUT
WEATHER BY HOUR - JULY 12, 2014
[ °C ]   °F
Local TimeTemperatureDewpointHumidityBarometerVisibilityWind DirectionWind SpeedGust SpeedPrecipitationEventsConditions
12:15 AM69.3 °F52.7 °F56 %30.08 in10.0 miSSW (210°)11.5 mph17.3 mphOvercast
12:35 AM69.3 °F53.2 °F57 %30.08 in10.0 miSSW (210°)13.8 mph19.6 mphOvercast
12:56 AM69.3 °F53.4 °F57 %30.07 in10.0 miSSW (210°)10.4 mph19.6 mphOvercast
1:15 AM68.9 °F52.9 °F57 %30.07 in10.0 miSSW (210°)10.4 mph17.3 mphOvercast
1:35 AM68.2 °F52.7 °F58 %30.07 in10.0 miSW (220°)10.4 mph20.7 mphMostly Cloudy
1:55 AM68.0 °F52.3 °F57 %30.07 in10.0 miSW (220°)11.5 mph20.7 mphMostly Cloudy
2:15 AM67.3 °F52.0 °F58 %30.07 in10.0 miSSW (210°)10.4 mph19.6 mphMostly Cloudy
2:36 AM67.1 °F51.8 °F58 %30.06 in10.0 miSSW (210°)11.5 mph17.3 mphMostly Cloudy
2:55 AM66.4 °F51.8 °F59 %30.06 in10.0 miSSW (210°)10.4 mph19.6 mphMostly Cloudy
3:15 AM66.2 °F52.2 °F61 %30.05 in10.0 miSW (220°)11.5 mph18.4 mphScattered Clouds
3:55 AM66.6 °F52.9 °F61 %30.04 in10.0 miSSW (210°)11.5 mph18.4 mphMostly Cloudy
4:15 AM66.6 °F53.6 °F63 %30.04 in10.0 miSW (220°)11.5 mph18.4 mphOvercast
4:36 AM66.4 °F54.3 °F65 %30.03 in10.0 miSSW (210°)12.7 mph19.6 mphOvercast
4:55 AM65.5 °F54.9 °F68 %30.03 in10.0 miSW (220°)12.7 mph18.4 mphOvercast
5:15 AM64.8 °F55.6 °F72 %30.03 in10.0 miSW (220°)11.5 mph18.4 mphOvercast
5:35 AM65.1 °F55.8 °F72 %30.02 in10.0 miSSW (210°)11.5 mphOvercast
5:55 AM65.3 °F56.3 °F73 %30.02 in10.0 miSW (220°)10.4 mph16.1 mphOvercast
6:15 AM65.5 °F55.9 °F71 %30.02 in10.0 miSW (220°)12.7 mph18.4 mphOvercast
6:35 AM65.5 °F55.8 °F71 %30.02 in10.0 miSSW (210°)11.5 mphOvercast
6:55 AM64.0 °F57.2 °F78 %30.02 in7.0 miSW (220°)12.7 mph18.4 mphRainRain
7:15 AM62.8 °F57.9 °F84 %30.02 in10.0 miSSW (210°)12.7 mphOvercast
7:35 AM63.3 °F58.3 °F84 %30.03 in10.0 miSW (220°)12.7 mph18.4 mphRainRain
7:55 AM63.5 °F58.3 °F83 %30.03 in10.0 miSW (220°)15.0 mph21.9 mphRainLight Rain
8:15 AM62.1 °F58.8 °F89 %30.03 in10.0 miSSW (210°)13.8 mph21.9 mphOvercast
8:35 AM62.6 °F59.0 °F88 %30.03 in10.0 miSW (220°)13.8 mph27.6 mphOvercast
8:55 AM62.6 °F59.4 °F89 %30.03 in10.0 miSW (220°)15.0 mph21.9 mphOvercast
9:15 AM62.6 °F60.1 °F91 %30.03 in10.0 miSSW (210°)12.7 mph20.7 mphOvercast
9:55 AM64.9 °F61.7 °F89 %30.03 in10.0 miSW (220°)9.2 mph17.3 mphOvercast
10:15 AM66.9 °F62.4 °F85 %30.01 in10.0 miSW (220°)10.4 mph16.1 mphOvercast
10:35 AM68.0 °F62.6 °F83 %30.01 in10.0 miSW (220°)10.4 mph17.3 mphMostly Cloudy
10:55 AM67.6 °F61.9 °F82 %30.00 in10.0 miSSW (210°)12.7 mphScattered Clouds
11:15 AM68.4 °F61.9 °F80 %30.01 in10.0 miSW (220°)13.8 mph18.4 mphClear
11:35 AM69.1 °F62.4 °F79 %30.01 in10.0 miSW (220°)11.5 mph19.6 mphMostly Cloudy
11:55 AM68.4 °F61.9 °F80 %30.00 in10.0 miSSW (210°)12.7 mph19.6 mphScattered Clouds
12:15 PM69.4 °F62.2 °F78 %30.00 in10.0 miSW (220°)12.7 mph17.3 mphClear
12:35 PM69.8 °F62.6 °F78 %30.00 in10.0 miSW (220°)11.5 mph17.3 mphClear
12:55 PM69.4 °F62.4 °F78 %29.99 in10.0 miSW (220°)10.4 mph16.1 mphClear
1:15 PM69.6 °F62.2 °F77 %29.99 in10.0 miSW (230°)13.8 mph18.4 mphClear
1:36 PM69.4 °F62.2 °F78 %30.00 in10.0 miSW (220°)10.4 mph16.1 mphClear
1:55 PM70.3 °F62.1 °F75 %30.00 in10.0 miSW (220°)11.5 mph17.3 mphClear
2:15 PM70.0 °F62.2 °F76 %30.00 in10.0 miSW (230°)11.5 mph21.9 mphClear
2:36 PM67.5 °F61.3 °F81 %30.00 in10.0 miSW (230°)10.4 mph19.6 mphMostly Cloudy
2:55 PM67.5 °F61.5 °F81 %30.00 in10.0 miSW (220°)15.0 mph19.6 mphOvercast
3:15 PM67.8 °F61.3 °F80 %30.00 in10.0 miSW (230°)15.0 mph19.6 mphOvercast
3:36 PM67.8 °F61.3 °F80 %29.99 in10.0 miSW (220°)10.4 mph19.6 mphMostly Cloudy
3:55 PM68.2 °F61.7 °F80 %29.97 in10.0 miSW (230°)15.0 mph20.7 mphScattered Clouds
4:15 PM68.4 °F61.7 °F79 %29.96 in10.0 miSW (220°)15.0 mph23.0 mphClear
4:36 PM68.4 °F61.5 °F79 %29.95 in10.0 miSW (230°)11.5 mph17.3 mphClear
4:55 PM69.3 °F61.9 °F77 %29.94 in10.0 miSW (230°)8.1 mphClear
5:15 PM68.9 °F62.1 °F79 %29.94 in10.0 miSW (230°)6.9 mphClear
5:35 PM69.3 °F62.4 °F79 %29.93 in10.0 miWSW (240°)9.2 mphClear
5:55 PM70.2 °F63.3 °F79 %29.93 in10.0 miSSW (210°)9.2 mphClear
6:15 PM69.8 °F63.5 °F80 %29.92 in10.0 miSSW (210°)10.4 mphClear
6:36 PM68.0 °F63.0 °F84 %29.92 in10.0 miWSW (240°)10.4 mph16.1 mphClear
6:55 PM65.7 °F62.1 °F88 %29.92 in10.0 miSW (220°)10.4 mph16.1 mphScattered Clouds
7:15 PM65.3 °F63.5 °F94 %29.92 in7.0 miSW (220°)10.4 mph17.3 mphMostly Cloudy
7:35 PM64.4 °F63.7 °F98 %29.91 in4.0 miSW (220°)9.2 mph17.3 mphOvercast
7:55 PM64.8 °F64.4 °F99 %29.90 in4.0 miSW (220°)8.1 mphOvercast
8:15 PM63.7 °F63.3 °F99 %29.89 in4.0 miSW (220°)10.4 mph18.4 mphOvercast
8:36 PM63.1 °F63.1 °F100 %29.89 in0.5 miSW (230°)10.4 mphFogFog
8:55 PM62.6 °F62.6 °F100 %29.88 in0.2 miSW (230°)5.8 mphFogFog
9:15 PM62.6 °F62.6 °F100 %29.86 in0.5 miSW (230°)8.1 mphFogFog
9:36 PM63.1 °F63.1 °F100 %29.84 in0.5 miSW (220°)5.8 mphFogFog
9:55 PM62.6 °F62.6 °F100 %29.84 in0.2 miSW (230°)6.9 mphFogFog
10:15 PM62.2 °F62.2 °F100 %29.83 in0.8 miWSW (250°)6.9 mphOvercast
10:36 PM61.5 °F61.5 °F100 %29.82 in2.0 miWest (260°)6.9 mphOvercast
10:55 PM60.1 °F60.1 °F100 %29.82 in1.0 miWSW (250°)5.8 mphOvercast
11:15 PM59.9 °F59.9 °F100 %29.83 in1.5 miWSW (240°)6.9 mphOvercast
11:36 PM59.4 °F59.4 °F100 %29.81 in1.0 miSW (220°)4.6 mphOvercast
11:55 PM59.5 °F59.5 °F100 %29.80 in4.0 miCalmOvercast
Hourly data recorded from KSJX, located miles away from Beaver Island, Michigan







STORIES FROM OUR PARTNERS